Wetbulb
58.61 59.19 59.90 60.13 60.23 60.49 60.68 61.01 61.23 61.55 61.46 61.07 60.99 61.33 61.65 61.45 60.40 57.60 53.10 57.62 59.51 62.86 60.88 56.23 55.75 55.78 57.30 55.40 55.66 54.60 48.67 47.47 48.05 47.19 48.65 50.26 48.94 50.42 50.86 50.70 50.27 51.59 51.57 51.03 52.63
58.07 58.12 59.11 59.63 59.76 60.11 60.34 60.46 60.69 61.12 61.13 61.01 60.54 60.97 61.38 60.92 58.17 55.09 60.65 61.49 62.65 62.73 55.93 54.43 53.85 54.68 54.50 54.14 54.31 52.16 49.49 48.94 50.39 50.23 49.01 50.10 49.83 50.92 48.24 48.89 49.55 50.23 51.40 49.74 49.98
57.37 57.33 57.55 58.71 59.07 59.67 60.01 60.17 60.56 60.66 60.81 60.71 60.47 60.95 60.67 59.89 54.67 54.81 61.36 62.67 62.34 60.87 56.29 55.31 55.27 54.69 52.91 53.92 53.28 52.21 49.29 50.34 50.40 50.64 50.29 49.73 49.48 51.13 48.85 48.44 51.19 50.86 51.93 49.38 48.47
57.05 56.83 56.86 56.98 58.24 59.08 59.54 59.77 60.29 60.50 60.59 60.36 60.36 60.68 59.98 58.73 47.54 55.11 60.97 60.95 60.49 58.88 55.38 53.93 53.87 51.66 51.51 50.79 52.76 48.42 51.58 50.67 50.45 50.33 49.12 48.53 50.52 48.80 49.46 50.69 52.96 53.96 54.42 51.28 48.80
56.67 56.44 56.27 56.37 57.14 58.17 58.81 59.30 59.65 60.11 60.09 60.07 60.28 60.51 58.97 52.88 52.62 56.29 58.29 58.06 56.88 55.39 53.87 53.51 53.08 52.82 50.67 51.19 50.36 48.75 50.64 50.16 50.68 49.79 49.36 50.02 47.97 48.78 49.77 52.51 53.41 52.66 51.17 51.40 49.68
56.44 56.10 55.87 55.93 56.56 57.47 58.04 58.59 59.28 59.82 59.65 59.68 59.94 59.37 56.02 48.58 56.85 57.42 55.01 53.64 53.78 53.97 53.44 54.03 53.75 53.36 51.24 50.06 49.10 50.11 49.57 49.79 50.43 49.54 49.14 47.09 48.64 48.07 50.70 52.80 52.21 51.97 50.11 50.37 50.49
56.36 55.86 55.49 55.58 56.75 56.92 57.52 58.18 59.02 59.26 59.26 59.18 59.91 58.52 53.67 51.30 57.02 56.44 54.16 53.40 53.22 53.60 52.56 53.62 54.19 52.45 52.15 50.05 50.49 48.91 46.40 49.89 49.58 48.91 47.73 48.37 45.52 46.39 50.91 50.75 50.01 50.49 50.92 50.49 50.67
56.30 55.56 55.32 55.30 56.30 56.23 56.85 58.12 58.60 58.69 58.89 59.06 59.49 56.86 50.79 55.29 57.99 54.51 54.49 52.59 53.60 53.97 53.94 53.74 53.76 52.69 50.80 50.40 48.94 46.85 47.89 44.21 48.99 48.22 47.51 46.99 43.91 49.93 52.38 50.56 48.95 50.17 50.90 50.25 50.38
55.66 55.23 55.50 55.66 55.67 56.05 56.79 57.52 57.96 57.86 58.46 59.05 57.23 55.35 49.58 54.96 53.14 56.04 54.91 51.88 52.33 53.09 53.38 52.65 53.54 51.40 49.38 46.90 45.99 47.84 43.04 44.67 46.46 48.11 46.90 45.34 45.22 49.95 50.87 49.55 48.81 50.05 50.79 50.95 50.62
55.47 55.11 55.34 55.42 55.35 55.82 56.56 57.72 57.34 56.32 56.46 55.45 54.95 51.08 52.28 50.23 53.76 54.12 53.41 53.07 50.76 51.69 50.94 51.08 50.66 47.55 47.89 46.21 40.04 42.95 43.02 44.06 43.79 46.89 45.88 44.81 43.72 48.16 50.40 50.31 49.89 50.17 50.27 50.68 51.02
55.76 55.50 55.51 55.37 55.51 55.63 56.02 54.80 52.03 50.72 52.30 50.57 51.38 51.11 49.85 53.32 54.32 52.42 52.03 50.75 50.94 49.73 46.03 49.07 45.38 43.47 46.17 47.57 46.82 45.53 43.83 42.52 44.96 47.19 44.87 44.67 44.77 46.83 49.42 49.68 49.13 49.85 50.14 50.31 50.62
56.11 55.78 55.36 55.58 55.62 55.81 54.40 50.40 50.38 49.10 44.75 50.27 49.79 49.75 51.09 53.80 49.77 51.25 51.66 47.89 47.08 44.55 47.85 45.31 42.43 47.03 47.92 47.24 45.39 44.55 42.63 42.29 45.28 46.97 43.07 43.91 43.08 46.60 47.93 48.41 49.20 49.01 49.11 49.49 50.24
56.20 55.71 55.47 55.49 55.41 54.54 51.84 50.45 53.70 53.09 46.34 47.16 49.44 48.18 49.21 50.64 47.87 49.39 49.60 48.68 46.19 44.90 45.65 43.14 45.25 46.45 45.25 44.87 42.57 43.02 41.89 42.39 42.61 45.65 42.77 41.04 40.06 43.45 46.48 47.57 47.90 48.49 48.71 49.05 49.27
56.30 55.86 55.55 55.32 52.79 54.06 50.35 52.04 53.74 52.47 39.86 42.45 43.17 47.34 49.04 49.67 44.44 48.52 50.31 48.55 46.31 43.32 44.87 44.43 46.97 44.91 43.91 42.11 43.70 39.74 45.31 44.45 43.22 41.26 37.40 41.91 35.00 42.65 44.81 45.87 47.22 47.73 48.41 49.25 50.06
56.05 55.83 55.53 54.09 51.53 51.95 50.56 52.96 52.83 49.78 32.93 42.15 42.82 49.68 49.03 45.78 45.01 44.53 47.68 46.70 43.45 43.64 44.08 42.37 43.85 41.96 41.41 42.78 45.06 42.20 41.22 41.63 41.90 40.09 39.77 39.81 36.63 40.10 43.69 42.17 43.46 45.61 47.71 49.31 50.09
56.19 55.72 54.74 54.34 54.98 53.72 53.21 52.62 50.45 38.40 31.48 39.58 44.62 42.98 43.83 44.56 43.39 43.73 44.56 47.16 46.10 43.63 44.03 43.30 44.14 43.78 44.60 41.22 42.85 41.52 40.68 40.18 39.62 38.70 32.54 39.06 38.31 38.29 41.08 41.25 43.60 45.10 46.20 48.74 47.29
56.18 55.53 53.98 55.07 52.36 53.43 53.00 49.79 37.47 32.31 40.33 39.68 41.26 42.62 42.86 42.89 42.52 41.86 40.66 39.56 39.22 36.59 38.46 42.91 42.49 44.17 42.65 40.69 40.38 40.09 39.67 35.08 34.44 33.49 31.98 40.85 37.70 39.95 44.05 44.39 44.96 45.09 46.46 48.12 46.77
56.20 55.23 54.01 54.76 56.50 55.02 50.52 42.04 31.04 38.99 39.89 42.42 41.62 41.78 40.45 43.31 42.63 41.77 40.88 39.45 42.51 41.83 39.26 38.49 36.60 41.18 41.94 42.44 42.57 38.65 40.84 36.20 29.24 30.27 33.69 38.32 34.00 39.74 46.38 46.76 46.05 46.27 46.98 46.56 44.99
56.48 54.33 52.56 54.61 54.81 53.54 45.00 33.56 37.07 41.62 42.83 40.28 40.51 38.58 39.43 41.34 41.65 41.64 41.01 41.76 43.70 42.25 37.61 37.74 38.05 38.25 39.99 40.41 42.66 38.57 35.08 40.89 36.04 35.82 32.36 36.89 41.04 45.68 44.71 44.24 44.43 44.35 44.11 44.06 44.70
53.92 51.63 50.71 54.28 53.23 48.32 37.60 35.85 41.68 44.43 42.75 41.36 37.24 40.54 37.64 40.17 38.37 39.51 40.63 44.10 42.59 44.40 45.50 42.12 36.46 40.93 34.14 37.86 37.46 38.00 39.48 34.14 35.00 28.87 28.07 34.83 36.43 37.48 41.53 42.99 43.46 43.33 43.68 45.67 46.11
53.23 46.40 52.44 53.25 50.77 43.78 32.15 34.31 42.65 45.41 42.75 38.97 38.68 39.09 40.23 40.14 41.07 39.67 39.69 43.39 44.69 44.18 44.30 42.90 40.09 37.16 35.45 34.28 37.63 33.55 34.50 34.55 34.40 35.89 30.44 28.24 34.00 42.57 42.11 44.12 44.07 44.56 44.46 45.62 46.95
50.89 42.12 51.19 51.25 40.63 39.60 33.76 39.60 42.65 43.58 42.40 40.05 40.62 39.23 38.65 39.55 38.92 38.69 39.01 41.99 45.26 43.11 38.23 41.30 38.14 34.86 38.12 41.93 39.41 39.84 38.43 38.03 32.03 31.22 33.85 32.67 32.74 41.17 43.73 44.65 43.85 43.88 44.42 47.24 46.82
47.15 47.09 49.19 50.11 37.78 35.65 37.79 38.88 41.42 42.05 40.37 36.87 36.32 38.92 40.85 36.36 32.74 37.89 40.00 44.24 44.46 41.96 39.56 39.21 34.24 30.31 32.86 35.11 34.15 34.23 36.91 37.44 38.48 36.61 31.53 30.16 32.62 43.77 45.04 43.95 43.28 43.49 44.90 45.27 45.54
46.60 40.29 41.98 43.89 45.43 41.51 36.96 38.35 38.91 44.72 42.55 41.86 37.85 38.78 36.85 35.16 37.96 35.59 37.81 42.41 43.35 42.24 42.89 41.28 35.39 31.67 28.80 34.90 38.99 33.36 34.64 36.55 35.05 31.26 31.79 32.66 35.33 39.82 41.98 42.81 44.54 45.28 45.95 46.31 46.35
44.63 42.08 42.31 35.04 37.73 40.86 41.28 40.01 38.51 38.58 43.38 43.75 39.26 37.83 36.38 34.13 35.81 34.14 37.08 38.73 40.45 41.29 39.33 38.70 30.99 34.04 35.17 37.00 37.16 35.23 35.03 35.71 33.53 34.48 31.38 34.48 35.55 39.65 42.09 43.36 44.61 45.21 44.96 44.45 44.53
38.61 40.60 41.36 39.56 41.80 38.72 39.57 38.08 38.27 40.10 41.62 40.15 37.14 39.28 39.66 34.91 37.24 37.24 38.14 37.62 36.32 37.33 36.45 37.55 30.58 32.95 30.63 35.13 34.86 32.52 35.22 35.66 35.71 36.03 36.28 35.82 34.90 42.01 43.01 43.73 42.73 43.21 44.02 43.69 43.73
43.75 42.21 35.87 35.29 37.36 37.32 37.17 38.92 38.82 41.91 43.12 44.58 42.87 39.06 38.03 38.44 41.32 43.33 44.48 43.95 38.90 36.30 34.04 32.63 31.13 29.69 26.59 33.25 32.88 28.20 32.69 34.05 35.73 37.98 37.42 32.52 37.66 42.50 41.76 42.20 43.02 43.97 44.52 43.80 43.71
MSLP
1019.74 1019.38 1019.03 1018.61 1018.28 1017.94 1017.57 1017.17 1016.76 1016.47 1016.30 1016.11 1015.90 1015.60 1015.31 1015.07 1014.91 1014.81 1013.76 1013.50 1013.56 1013.96 1014.02 1013.66 1013.42 1013.18 1013.12 1012.65 1012.61 1012.20 1010.77 1009.01 1008.67 1008.95 1008.79 1009.96 1010.23 1010.95 1011.33 1011.18 1011.85 1012.28 1012.54 1013.65 1014.35
1019.97 1019.68 1019.28 1018.90 1018.52 1018.11 1017.72 1017.33 1016.90 1016.45 1016.12 1015.98 1015.82 1015.62 1015.30 1015.09 1014.49 1013.68 1013.05 1013.28 1013.55 1013.80 1013.52 1013.13 1012.69 1012.87 1012.36 1012.29 1012.22 1011.64 1010.30 1008.93 1009.09 1009.16 1009.47 1010.00 1010.40 1010.41 1011.35 1011.03 1010.99 1011.67 1012.73 1014.11 1014.77
1020.20 1019.88 1019.55 1019.11 1018.73 1018.33 1017.86 1017.36 1016.94 1016.52 1016.14 1015.84 1015.62 1015.46 1015.26 1014.92 1014.13 1012.36 1013.05 1013.34 1013.53 1013.63 1013.27 1012.94 1012.65 1012.56 1012.03 1011.94 1011.53 1011.05 1009.95 1009.46 1009.52 1009.81 1010.17 1010.12 1010.27 1010.44 1010.51 1009.82 1009.47 1009.95 1011.09 1013.29 1014.24
1020.27 1020.03 1019.72 1019.33 1018.83 1018.41 1017.98 1017.47 1016.96 1016.52 1016.10 1015.77 1015.52 1015.25 1015.08 1014.57 1013.49 1012.76 1013.22 1013.49 1013.60 1013.33 1013.13 1012.77 1012.53 1012.21 1011.63 1011.32 1011.12 1011.07 1010.08 1010.09 1010.08 1010.53 1010.82 1010.55 1010.17 1009.91 1009.76 1008.57 1008.90 1009.21 1009.65 1011.53 1013.05
1020.30 1020.03 1019.75 1019.37 1018.89 1018.33 1017.89 1017.46 1016.92 1016.48 1016.10 1015.66 1015.39 1015.14 1015.05 1013.99 1012.51 1012.81 1013.08 1013.33 1013.34 1013.39 1012.95 1012.64 1012.21 1011.67 1011.17 1010.82 1011.15 1010.98 1010.15 1010.45 1010.56 1011.00 1011.08 1010.88 1010.44 1009.92 1008.62 1008.38 1008.75 1009.36 1010.17 1010.82 1011.94
1020.24 1020.06 1019.77 1019.38 1018.85 1018.23 1017.69 1017.16 1016.74 1016.31 1015.85 1015.53 1015.29 1015.12 1014.65 1013.38 1012.48 1012.61 1012.97 1013.16 1012.76 1012.83 1012.58 1012.51 1011.96 1011.94 1011.47 1011.20 1011.25 1010.79 1010.63 1010.34 1010.40 1010.71 1010.96 1010.89 1010.15 1010.10 1007.69 1007.79 1008.02 1008.57 1009.52 1010.21 1010.70
1020.09 1019.85 1019.62 1019.29 1018.84 1018.23 1017.51 1016.93 1016.40 1016.00 1015.51 1015.14 1015.14 1014.61 1013.72 1012.37 1012.25 1012.53 1012.84 1012.88 1012.99 1012.65 1012.39 1012.61 1012.39 1012.15 1011.76 1011.15 1011.25 1010.98 1010.53 1009.52 1009.55 1010.06 1010.51 1010.75 1009.96 1008.51 1007.32 1007.81 1007.82 1008.01 1008.44 1009.14 1009.55
1019.95 1019.69 1019.35 1019.05 1018.66 1018.17 1017.42 1016.63 1016.08 1015.43 1015.18 1014.93 1014.89 1014.37 1012.84 1012.46 1012.35 1012.77 1012.76 1012.95 1013.03 1012.91 1012.65 1012.75 1012.63 1012.16 1011.85 1011.69 1011.08 1010.53 1009.88 1008.66 1007.95 1009.58 1010.48 1010.60 1007.65 1006.72 1006.33 1006.92 1007.30 1007.30 1007.41 1007.93 1008.30
1019.92 1019.53 1019.13 1018.67 1018.31 1017.82 1017.09 1016.17 1015.60 1015.19 1014.81 1014.89 1014.71 1013.93 1012.43 1012.85 1012.48 1012.33 1012.55 1012.52 1012.92 1013.09 1013.10 1012.99 1012.68 1011.99 1012.02 1011.19 1010.10 1008.83 1008.09 1007.54 1007.51 1008.71 1009.70 1009.99 1007.33 1006.05 1006.52 1006.82 1006.59 1006.30 1006.07 1006.12 1006.82
1020.04 1019.64 1019.12 1018.61 1017.97 1017.35 1016.54 1015.44 1015.01 1015.12 1014.68 1014.36 1014.11 1014.02 1012.16 1012.14 1012.31 1012.41 1012.65 1012.69 1012.64 1012.92 1012.96 1012.72 1012.11 1011.35 1010.71 1010.05 1008.51 1007.32 1006.96 1006.71 1006.67 1007.80 1008.87 1008.73 1007.43 1006.11 1006.14 1005.99 1005.46 1004.98 1005.04 1004.98 1004.97
1020.10 1019.72 1019.36 1018.69 1018.04 1017.21 1016.07 1014.91 1015.21 1014.86 1014.07 1012.61 1012.24 1011.81 1011.83 1012.49 1012.72 1012.61 1012.61 1012.62 1012.47 1012.43 1011.82 1011.78 1011.19 1009.38 1008.63 1008.51 1008.31 1007.93 1007.48 1007.05 1006.17 1007.13 1008.21 1007.54 1007.11 1006.05 1005.44 1005.21 1004.70 1003.87 1003.59 1003.53 1003.77
1019.90 1019.67 1019.32 1018.88 1018.10 1017.23 1016.42 1015.48 1016.63 1017.20 1014.51 1012.33 1012.18 1012.04 1011.94 1012.09 1012.30 1012.35 1012.69 1012.45 1012.00 1011.23 1011.11 1011.50 1009.88 1008.53 1008.52 1008.46 1008.51 1008.13 1007.89 1006.88 1006.61 1006.86 1008.38 1007.47 1006.60 1005.94 1005.45 1004.31 1003.77 1003.27 1002.42 1002.31 1002.78
1019.49 1019.50 1019.23 1018.78 1018.10 1017.23 1016.18 1016.29 1016.68 1016.73 1015.32 1012.07 1011.48 1011.43 1011.59 1012.04 1011.39 1011.15 1012.01 1011.63 1011.25 1010.86 1010.16 1009.60 1008.35 1008.97 1009.04 1008.85 1009.06 1008.42 1008.06 1007.23 1007.30 1007.33 1008.26 1007.89 1005.89 1004.90 1004.13 1003.49 1003.03 1002.49 1001.80 1001.82 1002.37
1019.14 1019.23 1019.05 1018.61 1018.53 1017.81 1016.95 1017.33 1016.65 1016.22 1014.22 1011.35 1011.57 1011.53 1011.91 1011.97 1011.86 1011.93 1011.70 1011.63 1011.08 1010.26 1009.97 1009.15 1008.64 1008.80 1008.97 1008.86 1009.12 1008.61 1007.97 1007.83 1007.90 1008.30 1007.12 1007.33 1003.35 1003.31 1002.89 1002.29 1002.11 1001.62 1000.94 1000.79 1001.39
1018.67 1018.97 1019.07 1018.83 1019.00 1018.36 1018.73 1018.08 1017.27 1016.24 1012.96 1010.73 1011.47 1012.28 1011.98 1011.87 1012.00 1012.15 1012.30 1011.83 1010.69 1010.32 1010.35 1008.18 1008.87 1009.45 1009.45 1008.76 1008.95 1008.95 1009.11 1008.81 1008.59 1008.17 1007.29 1006.74 1004.90 1001.95 1001.96 1001.58 1001.54 1001.03 1000.29 1000.13 1001.27
1018.30 1018.54 1018.92 1018.69 1018.35 1018.21 1018.57 1018.59 1017.90 1015.47 1010.30 1009.93 1010.51 1011.39 1011.74 1011.52 1011.61 1012.11 1012.16 1011.82 1011.41 1010.60 1010.14 1009.13 1009.81 1009.68 1009.11 1009.79 1009.98 1010.11 1009.71 1009.25 1008.84 1008.24 1005.61 1004.77 1003.88 1000.98 1000.78 1000.97 1000.90 1000.53 1000.02 1000.64 1001.75
1017.83 1018.24 1018.70 1018.25 1017.45 1017.99 1018.18 1017.99 1016.61 1012.12 1008.82 1008.30 1008.73 1009.68 1010.21 1010.38 1010.74 1010.95 1011.19 1011.12 1010.37 1010.16 1009.03 1008.04 1008.56 1009.06 1009.77 1010.06 1010.52 1010.48 1009.92 1008.45 1007.34 1006.69 1002.59 1002.89 1001.43 999.89 999.97 1000.13 1000.31 999.65 999.76 1000.79 1002.00
1017.05 1017.49 1017.73 1017.85 1017.49 1017.88 1017.67 1017.00 1014.08 1009.38 1008.53 1008.23 1008.41 1008.82 1008.70 1008.56 1009.18 1009.70 1009.74 1009.56 1009.18 1008.85 1008.03 1007.42 1007.54 1008.32 1008.81 1008.74 1008.41 1009.35 1009.03 1008.18 1006.39 1005.66 1001.86 1002.58 999.44 998.55 998.47 998.72 999.24 999.17 999.66 1000.87 1002.13
1016.48 1016.71 1016.79 1016.78 1017.45 1017.57 1017.23 1014.92 1009.04 1008.69 1008.41 1008.41 1008.92 1008.23 1007.57 1007.78 1008.11 1008.45 1008.01 1006.90 1006.92 1007.63 1007.39 1006.54 1006.40 1008.08 1008.82 1008.98 1008.98 1009.41 1009.33 1008.32 1007.31 1005.77 1003.68 1000.57 998.55 997.64 998.15 998.44 998.66 999.29 1000.15 1000.82 1001.82
1016.22 1016.47 1015.81 1016.28 1017.21 1016.55 1016.18 1012.05 1008.82 1008.04 1008.24 1007.88 1007.31 1006.69 1006.01 1006.12 1007.02 1007.15 1006.21 1004.96 1005.68 1006.11 1006.28 1005.58 1006.34 1007.06 1009.20 1009.65 1009.64 1009.16 1008.68 1008.57 1008.20 1006.19 1003.56 998.46 998.27 997.73 997.92 997.49 998.39 999.21 999.71 999.85 1000.68
1015.75 1015.66 1014.48 1015.09 1017.59 1017.65 1015.74 1012.22 1010.37 1009.12 1009.14 1008.22 1007.07 1006.36 1005.53 1005.38 1004.94 1005.22 1004.50 1004.35 1004.72 1005.41 1006.38 1006.32 1006.87 1007.10 1008.80 1008.39 1007.78 1009.27 1008.27 1008.07 1007.61 1005.85 1004.01 1000.35 997.01 996.15 996.98 997.04 997.58 998.60 999.39 999.59 1000.05
1015.11 1014.89 1014.87 1015.12 1016.67 1015.98 1015.38 1013.20 1011.59 1010.13 1009.94 1008.90 1007.88 1007.58 1006.60 1005.97 1005.25 1004.83 1004.08 1004.11 1004.68 1005.59 1006.53 1006.82 1007.12 1007.13 1006.12 1006.07 1006.66 1006.70 1006.21 1006.25 1006.01 1004.55 1003.79 1002.17 994.16 996.74 996.27 996.82 997.52 998.26 998.86 999.40 999.95
1014.25 1014.01 1014.49 1014.43 1013.85 1013.79 1013.31 1012.16 1011.80 1010.58 1009.95 1009.96 1009.66 1008.57 1007.42 1007.28 1006.98 1005.80 1004.92 1004.55 1004.96 1005.75 1006.09 1007.09 1008.17 1008.12 1006.74 1007.21 1006.97 1006.30 1005.82 1005.68 1005.03 1004.53 1001.98 1002.63 994.20 996.18 996.15 996.89 997.29 997.80 998.15 998.67 998.90
1014.27 1013.36 1013.80 1013.09 1011.90 1012.08 1011.96 1011.02 1010.51 1008.82 1008.84 1008.79 1008.82 1009.28 1009.10 1007.79 1007.54 1005.97 1006.21 1005.47 1005.40 1005.79 1006.44 1006.69 1008.15 1008.99 1007.36 1004.31 1003.80 1004.95 1005.05 1005.10 1004.98 1003.61 1001.28 999.94 999.03 995.47 995.78 996.49 996.23 996.67 996.64 997.24 997.41
1014.16 1011.97 1011.38 1011.52 1011.04 1010.60 1010.40 1009.83 1009.03 1008.13 1007.67 1007.57 1007.38 1007.73 1007.78 1007.32 1007.18 1006.87 1006.58 1005.53 1005.85 1006.43 1007.26 1007.65 1008.06 1008.47 1007.31 1005.61 1004.64 1004.81 1004.35 1004.11 1002.97 1002.34 1001.86 998.39 999.24 996.65 995.21 996.14 995.41 995.50 995.49 996.53 996.34
1014.40 1013.18 1011.92 1010.83 1010.19 1009.58 1009.52 1008.23 1007.69 1006.62 1006.67 1005.96 1006.20 1005.74 1005.81 1006.11 1005.76 1004.97 1004.93 1005.13 1005.54 1006.38 1007.29 1008.21 1008.16 1008.11 1006.96 1005.34 1004.33 1005.18 1004.33 1002.01 1001.56 1001.41 999.87 999.28 997.93 997.02 995.97 995.39 995.57 994.92 995.20 995.88 995.11
1014.29 1014.13 1013.97 1011.91 1010.65 1009.94 1008.50 1007.21 1006.53 1006.53 1005.48 1005.27 1005.01 1005.21 1004.74 1004.29 1003.90 1003.20 1003.82 1004.13 1005.07 1006.53 1007.41 1007.87 1008.01 1007.57 1005.90 1004.76 1004.67 1003.70 1001.36 1000.25 1000.20 998.63 998.54 998.44 996.60 995.91 994.81 994.61 994.27 994.16 995.31 994.99 995.02
Wind_Speed
16 17 18 18 19 19 18 18 17 15 13 13 12 9 8 7 1 5 7 3 4 5 1 3 5 4 5 3 3 2 5 6 5 4 1 4 9 4 4 8 5 8 6 5 15
15 16 18 18 18 18 18 18 17 16 15 13 13 10 7 8 8 12 7 9 8 7 6 8 5 7 5 3 4 6 5 4 1 3 5 4 9 7 7 12 14 13 10 6 18
15 16 17 19 19 18 18 18 17 16 16 14 12 11 9 7 8 2 7 6 6 7 4 4 4 8 8 4 6 3 5 3 5 7 5 7 8 8 9 16 14 16 16 15 19
14 16 17 18 19 19 19 19 17 17 17 15 12 10 9 6 7 4 5 4 4 5 6 5 6 5 6 7 6 6 10 6 2 3 4 9 6 7 17 19 3 9 13 20 21
13 15 17 18 18 19 20 20 19 16 16 16 12 7 5 7 9 7 6 6 7 5 7 7 8 7 9 5 4 9 9 6 8 6 10 9 13 12 18 18 17 10 6 15 18
12 14 16 18 19 20 21 20 20 17 17 16 11 4 6 12 5 5 5 6 6 8 6 6 4 4 8 5 8 6 8 12 8 12 9 9 13 3 13 12 18 17 16 17 19
11 12 15 17 18 21 22 23 21 19 18 12 7 5 7 13 2 4 5 2 2 4 6 2 2 5 2 6 2 5 9 13 13 12 7 7 12 18 20 8 11 13 16 17 20
10 11 13 16 16 20 23 23 22 19 11 6 4 5 9 3 3 4 7 4 3 2 1 3 2 2 4 1 5 7 7 11 2 10 5 9 18 12 9 9 13 16 16 17 21
9 10 11 12 15 18 22 25 21 9 1 3 5 6 7 4 4 6 5 4 5 4 3 3 3 5 4 8 12 12 12 15 14 15 5 13 15 3 1 8 15 18 18 17 18
11 11 12 13 15 17 22 23 4 6 4 4 2 5 7 1 4 4 3 7 3 6 4 6 6 9 9 11 14 17 17 20 20 10 14 14 22 23 17 19 20 23 22 21 19
11 11 12 14 17 18 12 4 5 6 6 7 2 5 2 3 2 4 4 8 5 7 10 9 10 17 17 19 21 21 22 24 26 10 11 19 22 25 22 19 22 23 21 21 20
10 11 11 14 18 19 7 2 3 4 10 10 14 11 5 2 5 9 7 11 9 15 15 6 18 21 18 13 13 20 22 27 22 5 7 17 22 21 21 26 24 23 22 19 15
9 11 12 14 17 12 1 4 1 2 8 7 7 7 4 10 9 11 15 7 10 15 18 22 19 5 5 13 13 18 21 22 20 9 13 13 17 17 14 18 18 19 21 18 16
10 10 10 15 9 8 1 1 2 2 8 9 7 3 5 3 6 2 7 6 8 12 18 18 19 20 17 20 16 18 11 17 19 12 12 2 17 12 16 19 15 18 21 16 12
11 10 5 5 9 6 8 6 4 5 13 3 4 2 4 7 4 3 2 4 15 9 6 10 7 6 13 14 12 11 2 5 9 13 19 16 17 14 8 11 13 17 20 18 4
12 10 4 5 3 1 5 8 6 8 14 5 7 6 5 7 4 3 4 3 2 7 13 20 3 5 6 3 5 3 4 7 6 8 14 16 20 7 7 6 5 15 15 3 6
13 11 8 2 2 4 1 3 8 15 3 9 8 9 8 10 8 10 8 10 9 7 11 11 23 5 5 7 5 7 6 7 9 10 20 14 13 13 10 12 13 25 19 2 7
15 13 11 9 5 5 4 6 18 7 20 6 4 7 11 13 8 11 8 10 17 12 6 7 11 16 14 16 3 14 9 6 17 15 25 2 14 11 13 11 17 10 8 3 6
15 5 4 8 9 7 9 14 17 14 15 5 2 8 10 9 5 11 14 13 10 21 14 9 17 4 6 3 5 9 8 2 9 3 14 12 20 14 6 10 13 10 4 9 11
2 3 5 6 9 7 7 29 18 16 9 9 20 15 21 21 12 12 13 8 11 17 19 9 17 9 6 2 2 5 2 5 5 9 18 17 19 15 19 21 12 9 10 11 8
3 3 5 14 7 3 6 14 18 20 11 11 19 25 22 20 19 21 14 10 11 8 15 10 11 5 7 11 14 6 7 6 4 8 10 22 7 5 8 7 8 7 7 8 7
3 6 7 11 7 5 6 10 8 19 8 12 12 19 23 21 25 24 25 20 12 8 8 5 2 11 24 6 3 13 18 18 10 13 12 14 32 4 4 1 6 4 6 3 3
5 5 5 7 9 9 7 17 12 13 7 6 12 16 16 17 16 20 25 19 14 11 11 8 2 5 17 10 4 9 13 13 18 14 30 13 33 2 10 9 6 7 10 10 13
4 5 3 6 10 20 17 22 23 21 23 20 11 10 20 17 18 9 19 14 11 13 10 11 8 15 22 17 5 12 17 19 20 19 22 28 29 39 33 28 24 23 24 22 18
4 5 7 7 13 19 20 14 27 28 24 16 14 26 21 15 20 22 25 30 21 10 1 6 19 25 32 37 33 24 19 17 29 26 23 30 26 34 32 27 30 26 28 24 26
4 5 3 5 14 22 24 20 27 30 27 23 23 24 27 26 25 26 23 19 20 4 11 7 14 22 28 31 34 28 24 37 30 31 32 29 33 31 36 35 32 35 29 25 27
3 2 1 3 5 8 16 28 33 28 31 29 29 24 26 29 33 32 27 21 8 8 13 7 7 10 21 27 24 20 38 37 37 38 32 29 35 37 35 32 31 31 21 23 20
Wind_Direction
14 11 9 8 3 0 358 355 353 353 354 350 348 338 323 310 281 198 240 127 136 123 231 158 210 200 220 214 242 260 251 266 280 263 314 148 213 171 3 239 204 196 262 87 144
10 5 4 3 359 355 352 349 345 342 344 345 343 332 317 306 259 255 129 138 144 166 193 203 215 187 214 233 215 241 260 290 322 263 257 210 237 209 214 217 228 230 211 169 156
4 1 357 355 353 349 347 343 338 335 334 336 337 327 312 295 273 248 126 142 159 188 236 229 257 206 246 234 198 197 255 357 254 243 248 254 235 219 230 245 229 236 219 186 182
358 355 352 349 345 344 342 339 335 330 326 327 330 322 317 243 272 101 110 125 175 204 200 190 195 210 242 223 196 258 251 247 300 237 238 240 265 235 230 242 294 261 252 175 195
350 349 346 343 338 337 336 333 328 325 319 317 316 312 276 236 254 134 143 148 158 177 232 230 235 251 250 234 220 248 268 253 254 242 246 256 248 254 259 248 255 221 238 197 206
341 342 341 337 333 332 330 327 323 320 313 311 301 288 241 255 97 133 152 151 207 206 201 222 292 309 288 263 237 356 282 268 256 239 232 241 260 247 257 246 243 231 226 227 216
328 332 334 333 329 329 325 321 319 316 311 305 276 240 241 252 102 136 161 181 184 237 222 205 215 234 4 260 244 274 275 269 240 230 235 218 255 234 252 224 239 236 234 231 227
319 324 327 328 327 326 321 316 313 309 301 291 213 233 259 85 137 178 169 138 147 132 205 147 213 253 241 51 233 256 249 272 42 177 188 201 268 252 257 198 236 248 242 234 231
314 317 320 326 326 323 318 312 306 293 238 185 209 241 260 134 190 170 208 204 142 125 92 145 215 259 192 242 266 213 267 271 275 188 161 210 273 274 162 244 263 264 260 251 234
307 315 318 322 321 321 319 301 272 268 206 204 265 234 188 218 127 153 145 178 176 156 173 209 222 238 217 229 248 276 284 287 276 197 213 230 251 270 271 274 268 266 265 267 254
302 312 318 318 319 321 334 329 238 204 207 234 188 270 182 98 182 193 167 168 178 214 218 198 225 230 239 234 252 276 282 280 274 271 217 241 254 266 279 276 274 270 272 265 255
302 305 312 314 315 313 281 316 60 352 294 239 255 265 234 189 238 195 177 191 193 220 218 203 236 252 275 281 272 269 267 270 276 295 213 268 268 269 272 269 270 273 272 268 268
278 297 310 313 313 296 331 115 160 298 259 233 218 239 232 191 238 217 184 204 215 231 225 241 259 97 271 256 251 248 249 260 264 279 222 275 270 256 244 252 261 268 264 269 262
260 278 311 320 294 341 262 37 168 180 262 220 198 169 151 194 249 89 219 228 210 245 240 257 266 266 263 253 254 264 267 256 266 277 264 153 285 276 285 271 251 265 275 269 252
241 258 306 25 308 309 0 319 284 241 275 104 154 69 140 210 78 149 160 205 238 210 193 226 222 223 237 249 230 234 357 252 258 259 278 263 268 274 227 263 248 255 261 280 175
235 232 188 223 221 307 318 309 273 236 241 180 148 180 180 197 179 128 186 237 338 246 240 259 94 234 237 107 245 70 265 236 230 255 251 256 243 273 226 204 240 259 260 213 161
227 216 191 228 296 133 149 257 254 237 122 184 198 175 218 195 199 191 173 188 191 185 217 223 228 200 188 211 175 205 237 279 250 230 261 270 263 265 277 243 240 261 271 120 165
224 198 208 225 184 172 185 198 244 254 229 68 152 183 206 177 223 197 191 227 227 245 278 248 248 198 195 223 281 193 222 234 280 273 285 295 264 253 254 236 242 260 267 163 194
238 208 211 212 195 189 208 213 233 238 254 263 204 236 219 217 230 197 216 226 224 197 211 226 252 122 192 163 200 162 203 320 282 254 278 253 260 251 158 206 238 245 230 221 226
189 215 210 176 200 172 206 235 242 223 249 243 233 216 241 228 195 194 216 213 229 203 227 254 274 176 126 175 229 239 67 194 206 279 269 268 286 277 270 252 227 240 233 251 206
228 232 196 142 121 196 238 243 259 258 251 243 253 257 253 250 238 229 235 236 196 203 218 235 227 230 146 200 215 186 216 218 301 246 265 288 260 85 131 158 180 218 236 246 185
228 223 154 148 177 174 219 231 262 272 296 261 269 264 266 268 259 253 249 250 192 150 193 212 293 249 249 266 251 258 238 215 218 227 235 261 274 12 263 277 129 192 215 194 228
256 221 194 181 215 204 225 232 235 249 226 207 243 248 256 260 272 266 272 270 261 184 186 165 223 272 280 236 165 217 218 239 238 253 249 240 263 329 282 211 208 192 226 227 235
272 230 179 219 229 228 217 232 236 232 242 227 219 246 261 254 256 262 263 267 258 251 236 158 206 230 238 240 210 204 219 222 222 235 251 240 267 272 265 274 276 279 280 275 275
231 256 187 195 225 227 222 225 240 242 225 218 229 219 221 232 242 246 252 260 265 250 134 216 226 225 237 257 263 269 270 236 229 233 240 257 243 259 276 273 277 285 282 289 286
284 303 330 302 254 217 224 220 233 242 234 226 227 227 223 225 222 248 226 238 229 173 244 205 241 237 244 248 253 253 252 252 261 257 255 251 266 258 266 275 277 275 286 285 285
11 2 313 268 300 266 242 238 234 235 245 245 246 233 235 225 228 241 252 253 144 201 208 199 219 227 245 245 254 249 238 247 251 254 246 246 252 265 265 258 265 277 285 277 286